Time,TemperatureF,DewpointF,PressureIn,WindDirection,WindDirectionDegrees,WindSpeedMPH,WindSpeedGustMPH,Humidity,HourlyPrecipIn,Conditions,Clouds,dailyrainin,SoftwareType,DateUTC
2013-12-31 00:07:00,42.5,38.0,30.02,SSE,160,0.0,-999.0,83,-99.99,,,0.00,weatherlink.com 1.10,2013-12-31 05:07:00,
2013-12-31 00:22:00,42.3,36.0,30.01,SSE,160,0.0,-999.0,79,-99.99,,,0.00,weatherlink.com 1.10,2013-12-31 05:22:00,
2013-12-31 00:37:00,42.2,35.0,30.01,SSE,160,0.0,-999.0,76,-99.99,,,0.00,weatherlink.com 1.10,2013-12-31 05:37:00,
2013-12-31 00:52:00,42.1,34.0,30.01,ESE,113,0.0,-999.0,74,-99.99,,,0.00,weatherlink.com 1.10,2013-12-31 05:52:00,
2013-12-31 01:07:00,42.1,35.0,30.01,ESE,116,0.0,-999.0,75,-99.99,,,0.00,weatherlink.com 1.10,2013-12-31 06:07:00,
2013-12-31 01:22:00,41.9,35.0,30.01,NW,322,0.0,-999.0,76,-99.99,,,0.00,weatherlink.com 1.10,2013-12-31 06:22:00,
2013-12-31 01:37:00,41.8,34.0,30.01,NW,322,0.0,-999.0,75,-99.99,,,0.00,weatherlink.com 1.10,2013-12-31 06:37:00,
2013-12-31 01:52:00,41.5,33.0,30.01,NW,326,0.0,-999.0,71,-99.99,,,0.00,weatherlink.com 1.10,2013-12-31 06:52:00,
2013-12-31 02:07:00,41.6,33.0,30.02,NW,323,0.0,-999.0,72,-99.99,,,0.00,weatherlink.com 1.10,2013-12-31 07:07:00,
2013-12-31 02:22:00,41.5,33.0,30.02,NW,316,0.0,-999.0,73,-99.99,,,0.00,weatherlink.com 1.10,2013-12-31 07:22:00,
2013-12-31 02:37:00,41.3,32.0,30.01,WSW,251,0.0,-999.0,69,-99.99,,,0.00,weatherlink.com 1.10,2013-12-31 07:37:00,
2013-12-31 02:52:00,41.5,32.0,30.01,WSW,253,0.0,-999.0,70,-99.99,,,0.00,weatherlink.com 1.10,2013-12-31 07:52:00,
2013-12-31 03:07:00,41.2,32.0,30.02,WSW,246,0.0,-999.0,71,-99.99,,,0.00,weatherlink.com 1.10,2013-12-31 08:07:00,
2013-12-31 03:22:00,40.8,34.0,30.02,WSW,246,0.0,-999.0,78,-99.99,,,0.00,weatherlink.com 1.10,2013-12-31 08:22:00,
2013-12-31 03:37:00,40.2,35.0,30.02,West,268,0.0,-999.0,80,-99.99,,,0.00,weatherlink.com 1.10,2013-12-31 08:37:00,
2013-12-31 03:52:00,40.1,32.0,30.04,SSW,198,0.0,-999.0,74,-99.99,,,0.00,weatherlink.com 1.10,2013-12-31 08:52:00,
2013-12-31 04:07:00,40.2,33.0,30.03,WSW,248,0.0,-999.0,74,-99.99,,,0.00,weatherlink.com 1.10,2013-12-31 09:07:00,
2013-12-31 04:22:00,40.2,33.0,30.03,ESE,123,0.0,-999.0,75,-99.99,,,0.00,weatherlink.com 1.10,2013-12-31 09:22:00,
2013-12-31 04:37:00,39.3,34.0,30.04,South,179,0.0,-999.0,82,-99.99,,,0.00,weatherlink.com 1.10,2013-12-31 09:37:00,
2013-12-31 04:52:00,38.6,35.0,30.05,SSE,157,0.0,-999.0,86,-99.99,,,0.00,weatherlink.com 1.10,2013-12-31 09:52:00,
2013-12-31 05:07:00,38.5,35.0,30.06,SSE,157,0.0,-999.0,87,-99.99,,,0.00,weatherlink.com 1.10,2013-12-31 10:07:00,
2013-12-31 05:22:00,38.3,35.0,30.06,SSE,157,0.0,-999.0,88,-99.99,,,0.00,weatherlink.com 1.10,2013-12-31 10:22:00,
2013-12-31 05:37:00,38.2,35.0,30.06,SSE,157,0.0,-999.0,88,-99.99,,,0.00,weatherlink.com 1.10,2013-12-31 10:37:00,
2013-12-31 05:52:00,38.2,35.0,30.06,SSE,157,0.0,-999.0,89,-99.99,,,0.00,weatherlink.com 1.10,2013-12-31 10:52:00,
2013-12-31 06:07:00,38.0,35.0,30.05,ESE,112,0.0,-999.0,90,-99.99,,,0.00,weatherlink.com 1.10,2013-12-31 11:07:00,
2013-12-31 06:22:00,38.0,35.0,30.06,ESE,112,0.0,-999.0,90,-99.99,,,0.00,weatherlink.com 1.10,2013-12-31 11:22:00,
2013-12-31 06:38:00,38.0,36.0,30.07,ESE,112,0.0,-999.0,91,-99.99,,,0.00,weatherlink.com 1.10,2013-12-31 11:38:00,
2013-12-31 06:53:00,38.0,36.0,30.08,ESE,112,0.0,-999.0,92,-99.99,,,0.00,weatherlink.com 1.10,2013-12-31 11:53:00,
2013-12-31 07:08:00,38.0,36.0,30.09,ESE,112,0.0,-999.0,92,-99.99,,,0.00,weatherlink.com 1.10,2013-12-31 12:08:00,
2013-12-31 07:23:00,38.0,36.0,30.09,ESE,112,0.0,-999.0,92,-99.99,,,0.00,weatherlink.com 1.10,2013-12-31 12:23:00,
2013-12-31 07:38:00,37.8,36.0,30.09,ESE,112,0.0,-999.0,92,-99.99,,,0.00,weatherlink.com 1.10,2013-12-31 12:38:00,
2013-12-31 07:53:00,37.2,35.0,30.09,ESE,112,0.0,-999.0,92,-99.99,,,0.00,weatherlink.com 1.10,2013-12-31 12:53:00,
2013-12-31 08:08:00,36.9,35.0,30.11,ESE,112,0.0,-999.0,93,-99.99,,,0.00,weatherlink.com 1.10,2013-12-31 13:08:00,
2013-12-31 08:23:00,36.9,35.0,30.11,ESE,112,0.0,-999.0,93,-99.99,,,0.00,weatherlink.com 1.10,2013-12-31 13:23:00,
2013-12-31 08:38:00,37.2,35.0,30.12,ESE,112,0.0,-999.0,92,-99.99,,,0.00,weatherlink.com 1.10,2013-12-31 13:38:00,
2013-12-31 08:53:00,37.6,36.0,30.12,ESE,112,0.0,-999.0,92,-99.99,,,0.00,weatherlink.com 1.10,2013-12-31 13:53:00,
2013-12-31 09:08:00,38.6,37.0,30.13,SE,130,0.0,-999.0,92,-99.99,,,0.01,weatherlink.com 1.10,2013-12-31 14:08:00,
2013-12-31 09:23:00,39.9,37.0,30.13,SE,134,0.0,-999.0,89,-99.99,,,0.01,weatherlink.com 1.10,2013-12-31 14:23:00,
2013-12-31 09:38:00,40.5,36.0,30.14,SSE,157,2.0,-999.0,85,-99.99,,,0.01,weatherlink.com 1.10,2013-12-31 14:38:00,
2013-12-31 09:53:00,41.5,36.0,30.15,SSE,155,0.0,-999.0,80,-99.99,,,0.01,weatherlink.com 1.10,2013-12-31 14:53:00,
2013-12-31 10:08:00,42.5,36.0,30.16,SSE,152,0.0,-999.0,78,-99.99,,,0.01,weatherlink.com 1.10,2013-12-31 15:08:00,
2013-12-31 10:23:00,42.9,34.0,30.16,SSE,155,0.0,-999.0,71,-99.99,,,0.01,weatherlink.com 1.10,2013-12-31 15:23:00,
2013-12-31 10:38:00,44.1,34.0,30.16,SSE,155,0.0,-999.0,69,-99.99,,,0.01,weatherlink.com 1.10,2013-12-31 15:38:00,
2013-12-31 10:53:00,44.6,33.0,30.15,SSE,164,0.0,-999.0,64,-99.99,,,0.01,weatherlink.com 1.10,2013-12-31 15:53:00,
2013-12-31 11:08:00,44.5,31.0,30.16,ENE,76,0.0,-999.0,59,-99.99,,,0.01,weatherlink.com 1.10,2013-12-31 16:08:00,
2013-12-31 11:23:00,44.9,30.0,30.16,SW,230,0.0,-999.0,56,-99.99,,,0.01,weatherlink.com 1.10,2013-12-31 16:23:00,
2013-12-31 11:38:00,45.2,28.0,30.16,NW,315,0.0,-999.0,52,-99.99,,,0.01,weatherlink.com 1.10,2013-12-31 16:38:00,
2013-12-31 11:53:00,46.0,30.0,30.15,NE,35,0.0,-999.0,54,-99.99,,,0.01,weatherlink.com 1.10,2013-12-31 16:53:00,
2013-12-31 12:08:00,47.0,28.0,30.14,SSW,200,3.0,-999.0,48,-99.99,,,0.01,weatherlink.com 1.10,2013-12-31 17:08:00,
2013-12-31 12:23:00,47.4,29.0,30.13,SSE,160,0.0,-999.0,50,-99.99,,,0.01,weatherlink.com 1.10,2013-12-31 17:23:00,
2013-12-31 12:38:00,48.0,29.0,30.12,SSE,164,0.0,-999.0,48,-99.99,,,0.01,weatherlink.com 1.10,2013-12-31 17:38:00,
2013-12-31 12:53:00,48.3,29.0,30.12,SE,143,0.0,-999.0,48,-99.99,,,0.01,weatherlink.com 1.10,2013-12-31 17:53:00,
2013-12-31 13:08:00,48.5,27.0,30.12,SSW,206,11.0,-999.0,44,-99.99,,,0.01,weatherlink.com 1.10,2013-12-31 18:08:00,
2013-12-31 13:23:00,48.9,30.0,30.12,SE,131,0.0,-999.0,49,-99.99,,,0.01,weatherlink.com 1.10,2013-12-31 18:23:00,
2013-12-31 13:38:00,49.4,27.0,30.12,West,272,0.0,-999.0,42,-99.99,,,0.01,weatherlink.com 1.10,2013-12-31 18:38:00,
2013-12-31 13:53:00,49.6,24.0,30.12,SW,232,0.0,-999.0,37,-99.99,,,0.01,weatherlink.com 1.10,2013-12-31 18:53:00,
2013-12-31 14:08:00,49.8,24.0,30.11,SSW,195,0.0,-999.0,37,-99.99,,,0.01,weatherlink.com 1.10,2013-12-31 19:08:00,
2013-12-31 14:23:00,50.1,25.0,30.11,West,274,0.0,-999.0,38,-99.99,,,0.01,weatherlink.com 1.10,2013-12-31 19:23:00,
2013-12-31 14:38:00,49.8,22.0,30.11,West,277,0.0,-999.0,33,-99.99,,,0.01,weatherlink.com 1.10,2013-12-31 19:38:00,
2013-12-31 14:53:00,49.4,23.0,30.11,South,181,0.0,-999.0,35,-99.99,,,0.01,weatherlink.com 1.10,2013-12-31 19:53:00,
2013-12-31 15:08:00,49.2,24.0,30.11,South,186,0.0,-999.0,37,-99.99,,,0.01,weatherlink.com 1.10,2013-12-31 20:08:00,
2013-12-31 15:23:00,49.1,23.0,30.12,South,174,0.0,-999.0,36,-99.99,,,0.01,weatherlink.com 1.10,2013-12-31 20:23:00,
2013-12-31 15:38:00,49.1,23.0,30.12,West,277,3.0,-999.0,36,-99.99,,,0.01,weatherlink.com 1.10,2013-12-31 20:38:00,
2013-12-31 15:53:00,48.9,21.0,30.12,South,181,0.0,-999.0,34,-99.99,,,0.01,weatherlink.com 1.10,2013-12-31 20:53:00,
2013-12-31 16:08:00,48.5,23.0,30.13,South,171,0.0,-999.0,37,-99.99,,,0.01,weatherlink.com 1.10,2013-12-31 21:08:00,
2013-12-31 16:23:00,48.0,25.0,30.14,South,178,0.0,-999.0,40,-99.99,,,0.01,weatherlink.com 1.10,2013-12-31 21:23:00,
2013-12-31 16:38:00,47.4,24.0,30.14,SSE,152,0.0,-999.0,40,-99.99,,,0.01,weatherlink.com 1.10,2013-12-31 21:38:00,
2013-12-31 16:53:00,46.7,23.0,30.15,SSE,152,0.0,-999.0,39,-99.99,,,0.01,weatherlink.com 1.10,2013-12-31 21:53:00,
2013-12-31 17:08:00,46.0,23.0,30.15,SSE,152,0.0,-999.0,41,-99.99,,,0.01,weatherlink.com 1.10,2013-12-31 22:08:00,
2013-12-31 17:23:00,44.6,24.0,30.15,SSE,152,0.0,-999.0,45,-99.99,,,0.01,weatherlink.com 1.10,2013-12-31 22:23:00,
2013-12-31 17:38:00,43.3,26.0,30.15,SSE,152,0.0,-999.0,50,-99.99,,,0.01,weatherlink.com 1.10,2013-12-31 22:38:00,
2013-12-31 17:53:00,41.5,26.0,30.15,SSE,152,0.0,-999.0,55,-99.99,,,0.01,weatherlink.com 1.10,2013-12-31 22:53:00,
2013-12-31 18:08:00,40.9,27.0,30.16,SSE,152,0.0,-999.0,57,-99.99,,,0.01,weatherlink.com 1.10,2013-12-31 23:08:00,
2013-12-31 18:23:00,39.8,26.0,30.16,SSE,152,0.0,-999.0,59,-99.99,,,0.01,weatherlink.com 1.10,2013-12-31 23:23:00,
2013-12-31 18:38:00,38.8,27.0,30.17,SSE,152,0.0,-999.0,62,-99.99,,,0.01,weatherlink.com 1.10,2013-12-31 23:38:00,
2013-12-31 18:53:00,38.2,26.0,30.19,SSE,152,0.0,-999.0,63,-99.99,,,0.01,weatherlink.com 1.10,2013-12-31 23:53:00,
2013-12-31 19:08:00,38.3,26.0,30.20,SSE,152,0.0,-999.0,61,-99.99,,,0.01,weatherlink.com 1.10,2014-01-01 00:08:00,
2013-12-31 19:23:00,37.9,27.0,30.21,SSE,152,0.0,-999.0,65,-99.99,,,0.01,weatherlink.com 1.10,2014-01-01 00:23:00,
2013-12-31 19:38:00,37.2,27.0,30.21,SSE,152,0.0,-999.0,67,-99.99,,,0.01,weatherlink.com 1.10,2014-01-01 00:38:00,
2013-12-31 19:53:00,36.5,28.0,30.21,SSE,152,0.0,-999.0,71,-99.99,,,0.01,weatherlink.com 1.10,2014-01-01 00:53:00,
2013-12-31 20:08:00,35.8,28.0,30.22,SSE,152,0.0,-999.0,74,-99.99,,,0.01,weatherlink.com 1.10,2014-01-01 01:08:00,
2013-12-31 20:23:00,35.0,28.0,30.22,SSE,152,0.0,-999.0,76,-99.99,,,0.01,weatherlink.com 1.10,2014-01-01 01:23:00,
2013-12-31 20:38:00,34.6,28.0,30.22,SSE,152,0.0,-999.0,77,-99.99,,,0.01,weatherlink.com 1.10,2014-01-01 01:38:00,
2013-12-31 20:54:00,34.1,27.0,30.22,SSE,152,0.0,-999.0,76,-99.99,,,0.01,weatherlink.com 1.10,2014-01-01 01:54:00,
2013-12-31 21:09:00,33.8,28.0,30.23,SSE,152,0.0,-999.0,78,-99.99,,,0.01,weatherlink.com 1.10,2014-01-01 02:09:00,
2013-12-31 21:24:00,33.5,28.0,30.23,SSE,152,0.0,-999.0,79,-99.99,,,0.01,weatherlink.com 1.10,2014-01-01 02:24:00,
2013-12-31 21:39:00,33.4,28.0,30.24,SSE,152,0.0,-999.0,81,-99.99,,,0.01,weatherlink.com 1.10,2014-01-01 02:39:00,
2013-12-31 21:54:00,33.1,28.0,30.24,SSE,152,0.0,-999.0,82,-99.99,,,0.01,weatherlink.com 1.10,2014-01-01 02:54:00,
2013-12-31 22:09:00,32.5,28.0,30.24,SSE,152,0.0,-999.0,82,-99.99,,,0.01,weatherlink.com 1.10,2014-01-01 03:09:00,
2013-12-31 22:24:00,32.1,28.0,30.24,SSE,152,0.0,-999.0,83,-99.99,,,0.01,weatherlink.com 1.10,2014-01-01 03:24:00,
2013-12-31 22:39:00,31.8,27.0,30.24,SSE,152,0.0,-999.0,83,-99.99,,,0.01,weatherlink.com 1.10,2014-01-01 03:39:00,
2013-12-31 22:54:00,31.5,27.0,30.25,SSE,152,0.0,-999.0,84,-99.99,,,0.01,weatherlink.com 1.10,2014-01-01 03:54:00,
2013-12-31 23:09:00,31.3,27.0,30.25,SSE,152,0.0,-999.0,85,-99.99,,,0.01,weatherlink.com 1.10,2014-01-01 04:09:00,
2013-12-31 23:24:00,30.9,27.0,30.25,SSE,152,0.0,-999.0,85,-99.99,,,0.01,weatherlink.com 1.10,2014-01-01 04:24:00,
2013-12-31 23:39:00,30.6,27.0,30.24,SSE,152,0.0,-999.0,85,-99.99,,,0.01,weatherlink.com 1.10,2014-01-01 04:39:00,
2013-12-31 23:54:00,30.3,26.0,30.25,SSE,152,0.0,-999.0,85,-99.99,,,0.01,weatherlink.com 1.10,2014-01-01 04:54:00,